Location: Poughquag
(41.6090°N, 73.6820°W)
Time: 03:36:09
(UTC-04:00)

Vanguard 1 Rocket - Pass Details

Date: 01 June 2020
Orbit: 653 x 4224 km, 34.3° (Epoch: 06 July)

Event Time Altitude Azimuth Distance (km) Brightness Sun altitude
Rises 06:45:22 0° 276° (W) 5,199 10.7 13.2°
Reaches altitude 10° 06:50:25 10° 262° (W) 3,551 9.9 14.1°
Maximum altitude 06:55:59 20° 220° (SW) 2,227 9.0 15.1°
Drops below altitude 10° 07:00:01 10° 173° (S) 2,440 9.6 15.8°
Sets 07:02:42 0° 154° (SSE) 3,149 10.3 16.3°
